Location: Marcé
(47.5801°N, 0.3280°W)
Time: 21:17:59
(UTC+01:00)

Tiros 1 - Pass Details

Date: 06 December 2021
Orbit: 630 x 663 km, 48.4° (Epoch: 20 January)

Event Time Altitude Azimuth Distance (km) Brightness Sun altitude
Rises 20:36:44 0° 261° (W) 2,923 11.5 -33.8°
Reaches altitude 10° 20:39:03 10° 262° (W) 2,020 10.5 -34.2°
Enters shadow 20:40:50 23° 263° (W) 1,349 9.3 -34.5°
Maximum altitude 20:43:42 85° 351° (N) 647 - -35.0°
Drops below altitude 10° 20:48:26 10° 81° (E) 2,044 - -35.8°
Sets 20:50:47 0° 82° (E) 2,961 - -36.2°
